Location: Sungai Bunut
(2.6333°N, 113.7333°E)
Time: 12:12:15
(UTC+00:00)

Cosmos 1980 Rocket - Pass Details

Date: 16 October 2021
Orbit: 828 x 851 km, 71.0° (Epoch: 28 November)

Event Time Altitude Azimuth Distance (km) Brightness Sun altitude
Rises 21:14:57 0° 355° (N) 3,398 5.2 -14.1°
Reaches altitude 10° 21:17:29 10° 1° (N) 2,463 4.5 -13.5°
Maximum altitude 21:22:55 49° 74° (ENE) 1,083 3.2 -12.2°
Drops below altitude 10° 21:28:20 10° 148° (SSE) 2,457 5.2 -10.8°
Sets 21:30:51 0° 154° (SSE) 3,390 5.9 -10.2°
